Pagrindinis puslapis
METAR-TAF:

METAR-TAF

Oro uostai :

Ušuaja, Argentina

platuma: 54-48S, ilguma: 068-19W, Aukštis: 16 m

Dabartinis oras

Ataskaita buvo paskelbta 20 minutes, ne 02:00 UTC
Vėjas 12 kt iš Šiaurės Vakarų
Temperatūra 20°C
Drėgmė 30%
Slėgis 999 hPa
Matomumas 10 km arba daugiau
nėra debesų žemiau 1500 m ir nėra kamuolinių lietaus debesų

METAR: SAWH 090200Z 32012KT CAVOK 20/02 Q0999

Laikas: 23:20 (02:20 UTC)

Prognozė

Ataskaita buvo paskelbta 3 valandos ir 20 minutes, ne 23:00 UTC
Prognozė galioja nuo 09 metu 00 UTC su 09 metu 24 UTC
Vėjas 15 kt iš Šiaurės Vakarų
Matomumas 10 km arba daugiau
nėra debesų žemiau 1500 m ir nėra kamuolinių lietaus debesų
Tapsmas
nuo 09 metu 04 UTC su 09 metu 06 UTC
Vėjas 5 kt nuo kintamojo kryptimis
Matomumas 10 km arba daugiau
Išsisklaidę debesys ne aukštis 3000 ft
Tapsmas
nuo 09 metu 16 UTC su 09 metu 18 UTC
Vėjas 15 kt iš Šiaurės/Šiaurės Vakarų

TAF: SAWH 082300Z 0900/0924 32015KT CAVOK TX19/0919Z TN10/0910Z BECMG 0904/0906 VRB05KT 9999 SCT030 BECMG 0916/0918 34015KT

Orai ataskaitas ir orų prognozės (METAR, TAF).

turimą stotys yra geltonos ir raudonos taškus žemėlapyje.

Perkelti pele per norėdami pamatyti stoties vardą.

Tada spustelėkite, norėdami matyti oro stebėjimo ir prognozės.

Norėdami pakeisti žemėlapį: spustelėkite ant žalios mygtukų su juodo kryžiaus žemyn,; žalią mygtuką su brūkšneliu, jei norite nutolinti; arba žalių rodyklių gretimoms žemėlapius.


METAR-TAF: